�N����,����,�~����,�C��,���x,�C��,����,���ϕ���,�ő�u�ԕ���,�ő厞����,���˗�,�I�_���x,�n�����x,�ő啗���N��,DTYPE
"22/07/10","00:10",0.0,23.9,94.6,997.9,298.6,0.5,0.9,354.2,0.00,23.0,25.0,"00:00:16",1
"22/07/10","00:20",0.0,23.9,94.7,997.7,328.9,0.6,1.0,342.2,0.00,23.0,25.0,"00:15:44",1
"22/07/10","00:30",0.0,23.9,94.8,997.7,352.3,0.6,1.1,10.7,0.00,23.1,24.9,"00:28:00",1
"22/07/10","00:40",0.0,23.9,94.8,997.9,354.7,0.3,0.9,311.0,0.00,23.1,25.0,"00:38:08",1
"22/07/10","00:50",0.0,23.9,94.9,997.7,315.1,0.6,0.9,328.1,0.00,23.1,25.0,"00:46:00",1
"22/07/10","01:00",0.0,23.9,94.9,997.7,328.7,0.7,1.4,339.8,0.00,23.1,25.0,"00:58:08",1
"22/07/10","01:10",0.0,23.9,95.0,997.4,333.7,0.7,1.4,344.8,0.00,23.1,25.1,"01:04:16",1
"22/07/10","01:20",0.0,23.9,95.1,997.9,335.3,0.6,1.1,339.0,0.00,23.1,25.0,"01:13:44",1
"22/07/10","01:30",0.0,23.8,95.1,997.9,269.5,0.2,0.6,340.9,0.00,23.0,24.9,"01:20:32",1
"22/07/10","01:40",0.0,23.8,95.2,997.4,290.7,0.6,1.4,321.3,0.00,23.0,24.9,"01:39:44",1
"22/07/10","01:50",0.0,23.8,95.2,997.4,276.7,0.5,1.0,297.6,0.00,23.0,25.1,"01:41:20",1
"22/07/10","02:00",0.0,23.7,95.3,997.7,260.4,0.2,0.6,261.2,0.00,22.9,24.9,"01:52:00",1
"22/07/10","02:10",0.0,23.8,95.4,997.4,313.7,0.7,1.1,331.3,0.00,23.1,24.9,"02:03:52",1
"22/07/10","02:20",0.0,23.7,95.4,997.4,303.3,0.6,1.2,321.5,0.00,23.0,24.9,"02:19:52",1
"22/07/10","02:30",0.0,23.7,95.4,997.9,289.8,0.3,0.9,333.9,0.00,23.0,25.0,"02:20:16",1
"22/07/10","02:40",0.0,23.7,95.5,997.7,324.5,0.5,0.9,331.4,0.00,23.0,24.9,"02:36:24",1
"22/07/10","02:50",0.0,23.8,95.5,997.7,337.8,0.7,1.1,348.7,0.00,23.1,25.0,"02:42:56",1
"22/07/10","03:00",0.0,23.8,95.6,997.7,327.7,0.7,1.2,342.6,0.00,23.1,24.9,"02:50:32",1
"22/07/10","03:10",0.0,23.8,95.6,997.7,298.4,0.7,1.2,305.5,0.00,23.1,24.8,"03:07:44",1
"22/07/10","03:20",0.0,23.7,95.6,997.7,314.9,0.7,1.3,338.6,0.00,23.0,24.8,"03:11:52",1
"22/07/10","03:30",0.0,23.7,95.7,997.7,282.5,0.2,0.5,333.4,0.00,23.0,25.0,"03:20:16",1
"22/07/10","03:40",0.0,23.8,95.7,997.7,222.0,0.2,0.6,244.9,0.00,23.1,24.8,"03:39:12",1
"22/07/10","03:50",0.0,23.8,95.7,997.4,265.0,0.3,0.8,325.1,0.00,23.1,24.9,"03:47:52",1
"22/07/10","04:00",0.0,23.7,95.8,997.9,322.1,0.3,0.8,308.9,0.00,23.0,24.8,"03:52:00",1
"22/07/10","04:10",0.0,23.8,95.8,998.2,307.2,0.6,1.1,332.1,0.00,23.1,24.8,"04:04:00",1
"22/07/10","04:20",0.0,23.8,95.8,998.2,312.3,0.7,1.1,321.6,0.00,23.1,24.8,"04:14:32",1
"22/07/10","04:30",0.0,23.8,95.9,998.6,328.4,0.6,1.1,314.2,0.00,23.1,24.7,"04:24:00",1
"22/07/10","04:40",0.0,23.8,95.9,998.4,330.4,0.6,1.1,341.6,0.00,23.1,24.7,"04:38:24",1
"22/07/10","04:50",0.0,23.9,95.9,998.4,334.1,0.6,1.1,333.2,0.00,23.2,24.7,"04:40:02",1
"22/07/10","05:00",0.2,23.8,95.9,998.2,289.2,0.3,0.9,338.4,0.00,23.1,24.8,"04:50:08",1
"22/07/10","05:10",0.0,23.8,96.0,998.6,289.9,0.3,0.9,330.0,0.00,23.2,24.8,"05:02:08",1
"22/07/10","05:20",0.0,23.8,96.0,998.4,317.7,0.6,0.9,314.1,0.00,23.2,24.8,"05:10:48",1
"22/07/10","05:30",0.0,23.8,96.0,998.4,309.6,0.5,0.8,337.3,0.00,23.2,24.9,"05:23:52",1
"22/07/10","05:40",0.0,23.8,96.1,998.6,290.2,0.3,0.6,261.7,0.00,23.2,24.9,"05:38:56",1
"22/07/10","05:50",0.0,23.8,96.1,998.6,300.8,0.3,0.9,321.4,0.00,23.2,24.9,"05:44:16",1
"22/07/10","06:00",0.0,23.9,96.1,998.6,307.3,0.7,1.1,328.8,0.00,23.3,24.7,"05:58:40",1
"22/07/10","06:10",0.0,23.9,96.2,998.9,283.3,0.3,0.8,325.2,0.00,23.3,24.8,"06:01:12",1
"22/07/10","06:20",0.0,24.0,96.1,998.6,294.7,0.3,0.5,347.7,0.00,23.4,24.8,"06:12:32",1
"22/07/10","06:30",0.0,24.0,96.1,999.3,305.7,0.5,1.1,343.7,0.00,23.4,24.9,"06:27:52",1
"22/07/10","06:40",0.0,24.0,96.2,998.9,332.3,0.3,0.9,343.2,0.00,23.4,24.9,"06:31:28",1
"22/07/10","06:50",0.0,24.0,96.2,998.9,274.4,0.1,0.4,306.0,0.00,23.4,24.8,"06:49:28",1
"22/07/10","07:00",0.0,24.2,96.2,998.9,230.7,0.1,0.4,303.7,0.00,23.6,24.8,"06:50:08",1
"22/07/10","07:10",0.0,24.2,96.2,999.3,163.9,0.0,0.4,229.0,0.00,23.6,25.0,"07:09:20",1
"22/07/10","07:20",0.0,24.3,96.2,999.6,342.8,0.2,0.6,62.0,0.00,23.7,24.7,"07:18:00",1
"22/07/10","07:30",0.0,24.4,96.2,998.9,351.1,0.5,1.0,340.7,0.01,23.8,24.7,"07:23:04",1
"22/07/10","07:40",0.0,24.5,96.2,999.1,332.9,0.3,1.1,336.3,0.02,23.9,24.7,"07:30:48",1
"22/07/10","07:50",0.0,24.7,96.1,999.1,7.1,0.3,1.4,336.5,0.05,24.1,24.7,"07:48:08",1
"22/07/10","08:00",0.0,24.7,96.3,999.1,332.5,0.8,1.3,321.2,0.05,24.1,24.9,"07:50:24",1
"22/07/10","08:10",0.0,24.6,96.2,999.3,332.8,1.0,1.6,336.8,0.04,24.0,24.6,"08:05:44",1
"22/07/10","08:20",0.0,24.6,96.3,999.6,327.3,0.7,1.7,343.9,0.04,24.0,24.6,"08:12:40",1
"22/07/10","08:30",0.0,24.7,96.3,999.6,349.3,0.5,1.2,346.3,0.04,24.1,24.8,"08:26:08",1
"22/07/10","08:40",0.0,24.7,96.3,999.3,334.1,1.0,1.7,344.3,0.03,24.1,24.7,"08:32:00",1
"22/07/10","08:50",0.0,24.6,96.3,999.3,346.7,1.0,1.6,347.5,0.02,24.0,24.8,"08:43:20",1
"22/07/10","09:00",0.0,24.6,96.3,999.6,345.1,0.8,1.4,341.0,0.01,24.0,24.7,"08:57:12",1
"22/07/10","09:10",0.0,24.8,96.2,999.8,219.4,0.2,0.6,337.6,0.01,24.2,24.7,"09:09:04",1
"22/07/10","09:20",0.0,24.8,96.2,999.6,5.8,0.3,0.9,343.0,0.02,24.2,24.9,"09:11:20",1
"22/07/10","09:30",0.0,24.8,96.3,999.8,347.0,0.8,1.4,350.9,0.06,24.2,24.7,"09:29:44",1
"22/07/10","09:40",0.0,25.3,96.4,999.6,340.2,1.0,2.0,346.0,0.11,24.7,24.8,"09:32:48",1
"22/07/10","09:50",0.0,25.3,96.2,999.3,348.2,1.0,1.8,341.3,0.14,24.7,24.8,"09:48:24",1
"22/07/10","10:00",0.0,25.8,96.0,999.3,7.6,0.6,1.4,328.0,0.13,25.2,24.8,"09:51:12",1
"22/07/10","10:10",0.0,25.8,95.8,999.1,52.4,0.6,1.8,59.7,0.15,25.1,24.8,"10:09:04",1
"22/07/10","10:20",0.0,25.2,95.2,998.9,159.5,1.0,2.2,202.9,0.19,24.4,24.9,"10:14:56",1
"22/07/10","10:30",0.0,26.1,94.5,999.1,170.6,1.2,2.4,155.4,0.27,25.2,24.7,"10:21:36",1
"22/07/10","10:40",0.0,26.6,94.5,998.2,207.1,1.1,2.4,199.2,0.39,25.7,24.9,"10:37:36",1
"22/07/10","10:50",0.0,27.2,93.5,998.9,172.1,0.8,3.1,204.2,0.36,26.1,25.0,"10:46:32",1
"22/07/10","11:00",0.0,27.5,92.5,999.3,164.7,0.8,2.0,162.9,0.28,26.2,25.0,"10:58:32",1
"22/07/10","11:10",0.0,28.5,90.3,1000.0,173.6,1.0,2.1,186.6,0.55,26.8,25.1,"11:04:00",1
"22/07/10","11:20",0.0,28.3,85.5,1000.5,158.5,1.5,3.1,210.3,0.34,25.7,25.1,"11:19:04",1
"22/07/10","11:30",0.0,29.3,82.9,1000.5,183.1,0.8,2.9,156.1,0.36,26.1,25.0,"11:27:12",1
"22/07/10","11:40",0.0,29.9,77.7,1000.3,210.0,1.2,2.9,214.1,0.50,25.6,25.1,"11:37:04",1
"22/07/10","11:50",0.0,30.0,76.7,1000.0,162.0,0.7,2.1,137.9,0.29,25.5,25.0,"11:41:36",1
"22/07/10","12:00",0.0,30.6,76.1,1000.5,141.8,0.7,2.4,138.3,0.35,25.9,25.1,"11:56:16",1
"22/07/10","12:10",0.0,30.1,75.2,1000.3,112.9,0.7,1.8,117.7,0.16,25.3,25.3,"12:05:52",1
"22/07/10","12:20",0.0,29.8,75.5,999.8,61.8,0.6,2.7,98.5,0.18,25.0,25.3,"12:13:52",1
"22/07/10","12:30",0.0,29.9,75.1,999.6,84.4,0.7,1.8,113.9,0.20,25.0,25.4,"12:28:00",1
"22/07/10","12:40",0.0,30.6,73.9,999.6,95.3,0.7,1.8,100.3,0.34,25.5,25.3,"12:36:48",1
"22/07/10","12:50",0.0,31.1,70.3,1000.0,106.7,0.6,1.6,105.2,0.30,25.1,25.5,"12:40:16",1
"22/07/10","13:00",0.0,30.7,69.7,1000.0,159.3,1.0,2.4,177.5,0.24,24.6,25.3,"12:56:24",1
"22/07/10","13:10",0.0,30.8,69.5,999.8,114.4,0.5,1.7,218.2,0.21,24.6,25.5,"13:00:40",1
"22/07/10","13:20",0.0,30.9,69.0,999.8,359.3,0.7,1.6,17.2,0.15,24.6,25.4,"13:11:28",1
"22/07/10","13:30",0.0,30.7,70.3,999.6,277.8,0.7,1.6,341.2,0.15,24.7,25.7,"13:29:28",1
"22/07/10","13:40",0.0,30.7,71.3,999.3,316.6,1.0,2.8,355.8,0.20,24.9,25.6,"13:35:36",1
"22/07/10","13:50",0.0,31.2,71.3,999.6,297.9,0.2,1.4,8.1,0.21,25.4,25.4,"13:43:52",1
"22/07/10","14:00",0.0,31.1,69.9,999.8,227.0,0.6,1.2,241.4,0.20,25.0,25.6,"13:54:08",1
"22/07/10","14:10",0.0,31.0,69.8,1000.0,345.1,1.1,2.2,348.6,0.21,24.9,25.8,"14:00:48",1
"22/07/10","14:20",0.0,31.5,69.4,999.8,26.6,0.6,1.7,12.0,0.27,25.3,25.7,"14:10:32",1
"22/07/10","14:30",0.0,32.2,68.5,999.8,28.2,0.7,2.0,6.3,0.36,25.7,25.7,"14:25:36",1
"22/07/10","14:40",0.0,32.2,69.6,1000.0,114.8,1.0,1.9,111.8,0.35,26.0,25.7,"14:33:44",1
"22/07/10","14:50",0.0,31.5,70.4,1000.0,114.8,1.0,2.7,140.3,0.17,25.5,25.8,"14:45:04",1
"22/07/10","15:00",0.0,30.3,72.7,999.3,115.8,1.2,3.2,120.6,0.11,24.9,25.5,"14:57:12",1
"22/07/10","15:10",0.0,29.6,74.7,999.3,133.8,1.3,2.6,126.2,0.10,24.7,25.7,"15:02:00",1
"22/07/10","15:20",0.0,29.5,75.8,999.3,107.3,0.8,1.8,93.5,0.10,24.8,25.6,"15:16:24",1
"22/07/10","15:30",0.0,29.8,75.1,999.1,84.9,0.8,2.2,120.0,0.14,25.0,25.7,"15:27:28",1
"22/07/10","15:40",0.0,29.8,73.6,999.1,101.0,1.1,2.7,12.5,0.14,24.6,25.8,"15:30:24",1
"22/07/10","15:50",0.0,29.6,74.4,999.1,81.9,1.0,2.2,46.4,0.11,24.6,25.9,"15:41:36",1
"22/07/10","16:00",0.0,29.7,74.4,999.1,85.4,1.1,3.2,14.9,0.16,24.7,25.9,"15:53:28",1
"22/07/10","16:10",0.0,29.7,75.4,998.9,96.9,0.8,2.4,86.3,0.14,24.9,25.9,"16:03:36",1
"22/07/10","16:20",0.0,29.7,74.8,999.1,23.2,1.1,2.1,44.5,0.14,24.8,25.7,"16:13:04",1
"22/07/10","16:30",0.0,29.9,74.9,998.6,43.6,0.7,2.1,47.4,0.17,25.0,25.9,"16:26:08",1
"22/07/10","16:40",0.0,30.7,72.4,999.3,72.9,0.7,1.9,42.0,0.30,25.2,25.8,"16:39:20",1
"22/07/10","16:50",0.0,30.9,71.9,999.3,56.0,0.7,1.7,20.5,0.21,25.3,25.9,"16:40:16",1
"22/07/10","17:00",0.0,31.2,70.7,1000.0,110.7,0.8,2.2,128.9,0.23,25.3,25.8,"16:59:28",1
"22/07/10","17:10",0.0,31.3,70.6,999.8,21.2,1.0,2.9,347.0,0.21,25.4,26.2,"17:02:08",1
"22/07/10","17:20",0.0,30.4,71.0,999.6,107.6,1.0,1.8,146.1,0.08,24.6,26.1,"17:12:40",1
"22/07/10","17:30",0.0,29.6,73.9,999.1,118.3,0.8,1.9,125.7,0.04,24.5,25.9,"17:24:16",1
"22/07/10","17:40",0.0,29.3,75.0,998.6,60.1,0.7,1.8,92.4,0.05,24.4,26.0,"17:31:04",1
"22/07/10","17:50",0.0,29.0,75.2,998.9,42.6,0.8,2.1,24.5,0.04,24.2,26.0,"17:47:44",1
"22/07/10","18:00",0.0,28.9,75.8,998.6,26.3,0.6,1.8,7.8,0.04,24.2,26.0,"17:56:24",1
"22/07/10","18:10",0.0,28.8,75.9,998.6,9.7,0.7,1.9,339.2,0.03,24.2,25.8,"18:09:36",1
"22/07/10","18:20",0.0,28.7,76.2,998.4,4.0,1.1,2.8,0.8,0.03,24.1,25.9,"18:12:16",1
"22/07/10","18:30",0.0,28.5,76.1,998.4,0.6,1.1,2.1,7.0,0.02,23.9,26.2,"18:24:16",1
"22/07/10","18:40",0.0,28.5,76.7,998.4,352.6,0.6,1.8,2.5,0.02,24.0,26.1,"18:39:36",1
"22/07/10","18:50",0.0,28.3,77.1,998.6,353.8,0.8,2.4,4.0,0.01,23.9,26.1,"18:49:04",1
"22/07/10","19:00",0.0,28.1,77.7,998.4,350.4,0.7,2.4,338.1,0.01,23.9,25.9,"18:51:28",1
"22/07/10","19:10",0.0,28.0,78.3,998.9,7.9,0.6,1.4,17.9,0.00,23.9,25.8,"19:05:36",1
"22/07/10","19:20",0.0,27.8,78.7,999.3,343.1,0.8,1.7,321.8,0.00,23.8,26.0,"19:12:48",1
"22/07/10","19:30",0.0,27.6,79.3,999.3,344.0,0.8,2.2,352.9,0.00,23.7,26.0,"19:25:12",1
"22/07/10","19:40",0.0,27.6,80.0,999.1,334.6,1.0,1.4,359.1,0.00,23.9,26.2,"19:32:40",1
"22/07/10","19:50",0.0,27.4,81.3,999.6,343.9,0.7,1.7,358.6,0.00,24.0,25.8,"19:43:20",1
"22/07/10","20:00",0.0,27.3,82.6,999.3,330.0,1.0,1.7,347.6,0.00,24.1,25.8,"19:52:08",1
"22/07/10","20:10",0.0,26.8,83.8,999.6,328.9,0.7,1.3,343.2,0.00,23.9,25.9,"20:04:56",1
"22/07/10","20:20",0.0,26.6,84.7,999.8,322.7,0.6,1.0,340.4,0.00,23.9,25.7,"20:10:48",1
"22/07/10","20:30",0.0,26.5,85.3,999.8,319.6,0.7,1.1,339.8,0.00,23.9,25.9,"20:21:04",1
"22/07/10","20:40",0.0,26.4,85.7,1000.0,321.1,0.7,1.8,330.6,0.00,23.8,25.9,"20:38:16",1
"22/07/10","20:50",0.0,26.3,86.2,1000.3,328.4,0.8,1.2,332.6,0.00,23.8,25.8,"20:40:56",1
"22/07/10","21:00",0.0,26.3,86.5,1000.0,305.1,1.0,1.3,355.9,0.00,23.9,25.7,"20:50:24",1
"22/07/10","21:10",0.0,26.1,87.0,1000.3,296.1,0.7,1.2,341.2,0.00,23.8,25.8,"21:08:16",1
"22/07/10","21:20",0.0,26.1,87.3,1000.5,325.2,1.0,1.4,339.7,0.00,23.9,25.9,"21:16:40",1
"22/07/10","21:30",0.0,26.0,87.4,1000.5,320.4,1.2,2.0,340.2,0.00,23.8,25.8,"21:23:52",1
"22/07/10","21:40",0.0,26.0,87.7,1000.5,340.4,1.1,1.7,324.9,0.00,23.8,25.9,"21:31:04",1
"22/07/10","21:50",0.0,25.9,87.9,1000.5,330.3,0.8,1.4,326.6,0.00,23.8,25.6,"21:45:52",1
"22/07/10","22:00",0.0,25.8,88.2,1001.2,304.5,0.7,1.1,310.4,0.00,23.7,25.8,"21:56:08",1
"22/07/10","22:10",0.0,25.7,88.5,1001.2,292.2,0.7,1.1,278.7,0.00,23.7,25.8,"22:08:00",1
"22/07/10","22:20",0.0,25.7,88.6,1001.0,315.8,1.1,1.7,331.5,0.00,23.7,25.7,"22:12:32",1
"22/07/10","22:30",0.0,25.7,88.7,1000.8,307.5,0.8,1.6,317.4,0.00,23.7,25.7,"22:27:04",1
"22/07/10","22:40",0.0,25.6,88.8,1001.0,295.0,0.7,1.0,334.7,0.00,23.7,25.7,"22:30:08",1
"22/07/10","22:50",0.0,25.6,88.9,1001.0,315.7,0.7,1.4,320.2,0.00,23.7,25.6,"22:49:12",1
"22/07/10","23:00",0.0,25.4,89.0,1001.0,301.7,0.7,1.1,322.5,0.00,23.5,25.6,"22:52:32",1
"22/07/10","23:10",0.0,25.3,89.1,1001.0,283.8,0.7,1.2,256.5,0.00,23.4,25.7,"23:04:08",1
"22/07/10","23:20",0.0,25.2,89.2,1001.2,316.0,0.7,1.2,315.7,0.00,23.3,25.5,"23:10:32",1
"22/07/10","23:30",0.0,25.2,89.3,1001.0,336.9,1.0,1.4,343.3,0.00,23.4,25.4,"23:26:48",1
"22/07/10","23:40",0.0,25.0,89.6,1001.2,320.9,1.0,1.3,334.6,0.00,23.2,25.8,"23:33:36",1
"22/07/10","23:50",0.0,24.9,90.0,1001.0,328.9,1.1,1.7,328.7,0.00,23.2,25.6,"23:46:24",1
"22/07/10","24:00",0.0,25.0,90.2,1001.0,342.5,1.0,1.7,342.4,0.00,23.3,25.3,"23:55:44",1
